Location: Newark
(38.4667°N, 106.2667°E)
Time: 14:17:20
(UTC+00:00)

Hubble Space Telescope - Visible Passes

Search period start: 07 April 2020 00:00
Search period end: 17 April 2020 00:00
Orbit: 536 x 540 km, 28.5° (Epoch: 07 April)

Date Brightness Start Highest point End Pass type
(mag) Time Alt. Az. Time Alt. Az. Time Alt. Az.
07 Apr 2.7 12:57:09 10° SSW 12:59:00 16° S 12:59:00 16° S visible
08 Apr 2.5 12:46:12 10° SW 12:49:02 18° S 12:49:11 18° S visible
09 Apr 2.4 12:35:19 10° SW 12:38:16 19° S 12:39:17 17° SSE visible
10 Apr 2.4 12:24:30 10° SW 12:27:31 20° S 12:29:20 15° SE visible
11 Apr 2.5 12:13:42 10° SW 12:16:46 20° S 12:19:20 12° SE visible
12 Apr 2.5 12:02:58 10° SW 12:06:01 20° S 12:09:04 10° SE visible
12 Apr 3.4 13:44:23 10° SW 13:44:38 11° SW 13:44:38 11° SW visible
13 Apr 2.6 11:52:15 10° SW 11:55:16 20° S 11:58:16 10° SE visible
13 Apr 3.3 13:34:08 10° SW 13:34:35 11° SW 13:34:35 11° SW visible
14 Apr 3.3 13:24:32 10° SSW 13:24:33 10° SSW 13:24:33 10° SSW visible
